Weather in Raskildino

Russia / Chuvash Republic     55°41′08″N   46°34′38″E
temp.,
°C
wind,
m/s
gust,
m/s
humid.,
%
clouds,
%
prec.,
mm/h
press.,
hPa
HPBL,
m
16 april, fri
fri1600:00+10ne511939 0.0 1019253
03:00+8ene61093100 0.0 1021382
06:00+8ne71296100 0.0 1021394
09:00+9ene8118691 0.0 1023481
12:00+13ene796682 0.0 1023731
15:00+14ene796285 0.0 1023822
18:00+12ene6116874 0.0 1024581
21:00+8ene6137446 0.0 1025376
17 april, sat
sat1700:00+6ene512768 0.0 1026306
03:00+4ene511755 0.0 1027256
06:00+4ene511735 0.0 1027295
09:00+8ene79585 0.0 1027540
12:00+12e78465 0.0 1026951
15:00+13ene67365 0.0 10261139
18:00+10ene48455 0.0 1026254
21:00+6ene411620 0.0 1026210
18 april, sun
sun1800:00+4ene511720 0.0 1026219
03:00+3ene511760 0.0 1026206
06:00+3ene512765 0.0 1026284
09:00+9e69574 0.0 1026827
12:00+12e794521 0.0 10251291
15:00+12e7943100 0.0 10251633
18:00+10e61055100 0.0 1025463
21:00+6ene7137199 0.0 1027588
19 april, mon
mon1900:00+5e71371100 0.0 1028514
03:00+3e7125897 0.0 1029442
06:00+2e7136668 0.0 1030493
09:00+5e810525 0.0 1030838
12:00+8e810435 0.0 10301356
15:00+8e810383 0.0 10301483
18:00+7e711462 0.0 10311110
21:00+4e6145227 0.0 1031518
20 april, tue
tue2000:00+2e614537 0.0 1031396
03:000e613615 0.0 1031339
06:00+1e614665 0.0 1031423
09:00+6ese9135072 0.0 1029886
12:00+9ese101245100 0.0 10281189
15:00+10ese91245100 0.0 10271309
18:00+8ese81449100 0.0 1025951
21:00+7se81645100 0.0 1025801